Regional Weather Roundup
Issued by NWS

Home | Current Version | Previous Version | Text Only | Print | Product List | Glossary Off
Versions: 1 2 3 4 5 6 7 8 9 10 11 12 13 14 15 16 17 18 19 20 21 22 23 24 25 26 27 28 29 30 31 32 33 34 35 36 37 38 39 40 41 42 43 44 45 46 47 48 49 50

107
ASUS45 KCYS 291110
RWRWY

WYOMING REGIONAL WEATHER ROUNDUP
NATIONAL WEATHER SERVICE CHEYENNE WY
500 AM MDT SUN MAY 29 2016

NOTE:  "FAIR" INDICATES FEW OR NO CLOUDS BELOW 12,000 FEET
WITH NO SIGNIFICANT WEATHER AND/OR OBSTRUCTIONS TO VISIBILITY.

WYZ001-291200-
YELLOWSTONE NATIONAL PARK

CITY           SKY/WX    TMP DP  RH WIND       PRES   REMARKS
LK YELLOWSTONE   N/A     27  24  89 CALM      30.25S
W YELLOWSTONE  NOT AVBL

$$
WYZ002>013-054>058-071-098>099-291200-
NORTHERN WYOMING

CITY           SKY/WX    TMP DP  RH WIND       PRES   REMARKS
JACKSON        FAIR      30  28  93 NE3       30.21S
CODY           FAIR      46  32  57 SW7       30.09S
GREYBULL       FAIR      50  42  74 NW9       30.06R
WORLAND        FAIR      44  42  93 S7        30.07R
SHERIDAN       FAIR      43  39  86 CALM      30.06R
BUFFALO        FAIR      49  40  71 CALM      30.09R
GILLETTE       FAIR      47  44  90 S10       30.07S
HULETT         PTSUNNY   52  45  76 SW8       30.10F
NEWCASTLE      FAIR      48  41  76 NW10      30.12R

$$
WYZ014>020-022>026-101>103-291200-
CENTRAL WYOMING

CITY           SKY/WX    TMP DP  RH WIND       PRES   REMARKS
BIG PINEY      FAIR      32  28  85 CALM      30.23R
PINEDALE       FAIR      30  28  93 NW6       30.23R WCI  24
DUBOIS         FAIR      34  21  60 NW17      30.18S WCI  23
LANDER         FAIR      41  28  60 CALM      30.11R
RIVERTON       FAIR      44  28  53 NW13      30.12R
CASPER         FAIR      40  37  89 SW8       30.11R WCI  34
DOUGLAS          N/A    N/A N/A N/A MISG      30.10R

$$
WYZ021-027>030-104>119-291200-
SOUTHERN WYOMING

CITY           SKY/WX    TMP DP  RH WIND       PRES   REMARKS
EVANSTON       FAIR      44  30  57 SE6       30.20S
KEMMERER         N/A     34  32  93 NW8       30.22S WCI  27
FORT BRIDGER   SUNNY     45  32  61 W3        30.24R
ROCK SPRINGS   FAIR      44  34  67 CALM      30.19S
DIXON          FAIR      41  34  76 E3        30.23R
RAWLINS        FAIR      41  32  70 W3        30.19R
SARATOGA       FAIR      41  34  75 E6        30.22R
LARAMIE        FAIR      39  34  82 SE7       30.21R WCI  34
CHEYENNE       FAIR      42  35  76 W7        30.17R
TORRINGTON     FAIR      44  41  89 N7        30.09R
PINE BLUFFS    FAIR      41  39  93 SW5       30.14S

$$




USA.gov is the U.S. government's official web portal to all federal, state and local government web resources and services.